Weather History for Dickinson, ND

Change the Weather History Date:

Monday, October 31, 2011

  Actual Average Record
Temperature  
Mean Temperature 50 °F 37 °F  
Max Temperature 67 °F 49 °F 80 °F (1990)
Min Temperature 32 °F 26 °F 0 °F (2002)
Degree Days  
Heating Degree Days 15 28  
Month to date heating degree days 526 655  
Since 1 July heating degree days 762 1011  
Cooling Degree Days 0 0  
Month to date cooling degree days 16 1  
Year to date cooling degree days 358 419  
Moisture  
Dew Point 30 °F    
Average Humidity 52    
Maximum Humidity 73    
Minimum Humidity 31    
Precipitation  
Precipitation T in 0.03 in 0.95 in (1974)
Month to date precipitation 0.31 1.23  
Year to date precipitation 17.30 14.99  
Sea Level Pressure  
Sea Level Pressure 29.80 in    
Wind  
Wind Speed 13 mph (West)    
Max Wind Speed 25 mph    
Max Gust Speed 32 mph    
Visibility 10 miles    
Events Rain    
T = Trace of Precipitation, MM = Missing Value Source: NWS Daily Summary

Daily Weather History Graph

Daily Weather History Graph

Search for Another Location

Airport:

Trip Planner

Search our weather history database for the weather conditions in past years. The results will help you decide how hot, cold, wet, or windy it might be!

Date:

Astronomy

Oct. 31, 2011 Rise Set
Actual Time 7:31 AM MDT 5:37 PM MDT
Civil Twilight 7:00 AM MDT 6:08 PM MDT
Nautical Twilight 6:24 AM MDT 6:44 PM MDT
Astronomical Twilight 5:49 AM MDT 7:19 PM MDT
Moon 12:48 PM MDT (10/31) 10:08 PM MDT (10/31)
Length of Visible Light 11h 08m
Length of Day
10h 05m
Waxing Crescent, 30% of the Moon is Illuminated
Oct 31
Waxing Crescent
Nov 2
First Quarter
Nov 10
Full
Nov 18
Last Quarter
Nov 24
New

Hourly Weather History & Observations

Time (MDT) Temp. Windchill Dew Point Humidity Pressure Visibility Wind Dir Wind Speed Gust Speed Precip Events Conditions
12:56 AM 33.1 °F 24.4 °F 21.0 °F 61% 29.88 in 10.0 mi South 11.5 mph - N/A   Clear
1:56 AM 34.0 °F 25.0 °F 21.0 °F 59% 29.86 in 10.0 mi South 12.7 mph - N/A   Clear
2:56 AM 35.1 °F 26.4 °F 21.9 °F 59% 29.83 in 10.0 mi South 12.7 mph - N/A   Clear
3:56 AM 33.1 °F 27.7 °F 21.9 °F 64% 29.81 in 10.0 mi SSW 5.8 mph - N/A   Clear
4:56 AM 37.9 °F 32.1 °F 24.1 °F 57% 29.80 in 10.0 mi SW 8.1 mph - N/A   Clear
5:56 AM 39.0 °F 33.4 °F 25.0 °F 57% 29.80 in 10.0 mi SW 8.1 mph - N/A   Clear
6:56 AM 39.9 °F 33.9 °F 25.0 °F 55% 29.79 in 10.0 mi WSW 9.2 mph - N/A   Clear
7:56 AM 41.0 °F 35.8 °F 26.1 °F 55% 29.80 in 10.0 mi WSW 8.1 mph - N/A   Clear
8:56 AM 48.0 °F - 27.0 °F 44% 29.78 in 10.0 mi WSW 9.2 mph - N/A   Clear
9:56 AM 55.9 °F - 30.0 °F 37% 29.77 in 10.0 mi West 12.7 mph - N/A   Clear
10:56 AM 60.1 °F - 30.9 °F 33% 29.75 in 10.0 mi West 13.8 mph - N/A   Clear
11:56 AM 63.0 °F - 33.1 °F 33% 29.74 in 10.0 mi West 11.5 mph - N/A   Clear
12:56 PM 64.0 °F - 33.1 °F 31% 29.72 in 10.0 mi WSW 12.7 mph - N/A   Scattered Clouds
1:56 PM 66.0 °F - 35.1 °F 32% 29.70 in 10.0 mi West 12.7 mph 20.7 mph N/A   Partly Cloudy
2:56 PM 66.9 °F - 36.0 °F 32% 29.69 in 10.0 mi West 13.8 mph 24.2 mph N/A   Clear
3:56 PM 64.0 °F - 36.0 °F 35% 29.71 in 10.0 mi WNW 15.0 mph 21.9 mph N/A   Overcast
4:56 PM 61.0 °F - 37.0 °F 41% 29.72 in 10.0 mi WNW 16.1 mph - N/A   Overcast
5:56 PM 55.0 °F - 39.9 °F 57% 29.79 in 10.0 mi NW 20.7 mph 28.8 mph N/A   Overcast
6:56 PM 52.0 °F - 39.0 °F 61% 29.83 in 10.0 mi West 13.8 mph - 0.00 in   Overcast
7:56 PM 52.0 °F - 32.0 °F 47% 29.84 in 10.0 mi WNW 18.4 mph 26.5 mph 0.00 in Rain Light Rain
8:56 PM 50.0 °F - 34.0 °F 54% 29.86 in 10.0 mi WNW 18.4 mph - 0.00 in   Overcast
9:56 PM 46.9 °F - 33.1 °F 59% 29.87 in 10.0 mi WNW 16.1 mph - N/A   Mostly Cloudy
10:56 PM 45.0 °F 37.4 °F 32.0 °F 60% 29.89 in 10.0 mi NW 18.4 mph - N/A   Mostly Cloudy
11:56 PM 41.0 °F 33.5 °F 33.1 °F 73% 29.91 in 10.0 mi NW 13.8 mph - N/A   Clear